THORAD AGENA D DEB, 42497

Orbit data source: Space-Track

THORAD AGENA D DEB, 42497 is space debris in SSO originally from a launch on Wed, 08 Apr 1970 UTC launched from the Air Force Western Test Range (AFWTR). Debris objects in space refer to the collection of defunct objects orbiting the Earth. Examples of debris include non-operational satellites, rocket bodies, and fragments generated from explosions, collisions, or faulty payload assembly.

Loading next visibility...
Identifier
42497, 1970-025RB
Orbit
SSO
Country
Flag of USUS
Related business
Manufacturer
Unknown
Mission
Spacecraft
Bus & Motor
Unknown
Mass
Unknown
Launch date (UTC)
1970-04-08 (56 years ago)
Launch vehicle
Unknown
Launch site
Air Force Western Test Range (AFWTR)
Object type
Payload
Rocket body
Debris
Shape & HBR
Unknown shape, 0.1 m
Radar Cross Section
Small (<0.1 m²)

Expand to show TLE details & history
Last TLE update: 21 hours ago

TLE from 21 hours ago
0 THORAD AGENA D DEB
1 42497U 70025RB  25348.33539331  .00002847  00000-0  19906-2 0  9990
2 42497 100.0110 207.4918 0030197 288.0575  71.7296 13.99195184612222
Epoch: 2025-12-14T08:02Z
TLE epoch observation values (Epoch: 2025-12-14T08:02:57.981Z)
Latitude
-0.0001°
Longitude
3.50045°
Altitude
892.597 km
Speed
7.409 km/s
True Right ascension
13h 49m 58s
True Declination
0° 00' 00"
Sunlit
Object was in daylight at epoch
Visualization orbit readout
Latitude
Unknown
Longitude
Unknown
Altitude
Unknown
Speed
Unknown
Apparent Right ascension
Unknown
Apparent Declination
Unknown
Sunlit
N/A
Visualization observer readout
Local Sidereal Time
04:04:06
Azimuth
Unknown
Elevation
Unknown
Doppler factor
Unknown
Orbital elements
Apogee altitude
915.795 km
Perigee altitude
871.877 km
Semi-major axis
7,271.973 km
Eccentricity
0.00302
Inclination
100.011°
RAAN
207.4918°
Arg. of periapsis
288.0575°
True anomaly
72.05858°
Mean anomaly
71.7296°
Eccentric anomaly
71.89405°
Mean motion
3.49997 °/min
Orbital period
102.86 mins
BSTAR
0.0019906
Loading maneuver chart data...
Computing Atmospheric mass density...

Documentation

Showing up to 5 results
|